Tracking 30685 objects as of 17-Jun-2025
HD Live streaming from Space Station
objects crossing your sky now

NOAA 16 DEB

Track NOAA 16 DEB now!
10-day predictions


NORAD ID: 41233
Int'l Code: 2000-055EN
Perigee: 805.9 km
Apogee: 867.4 km
Inclination: 98.7 °
Period: 101.5 minutes
Semi major axis: 7207 km
RCS: Unknown
Launch date: September 21, 2000
Source: United States (US)
Launch site: AIR FORCE WESTERN TEST RANGE (AFWTR)

Note: This is SATELLITE DEBRIS
Your satellite tracking list
Your tracking list is empty




NASA's NSSDC Master Catalog

Two Line Element Set (TLE):
1 41233U 00055EN  25166.08388868  .00003073  00000-0  14860-2 0  9996
2 41233  98.7060 205.2948 0042633 117.7022 242.8489 14.18763335489057
Source of the keplerian elements: AFSPC